カタログに戻る

CHINASAT 6B

運用中通信GEO
NORAD 31800·PAYLOAD·🇨🇳 China

打ち上げ Jul 5, 2007 から Xichang Satellite Launch Center

Loading…

TLE

最新Source: Space-Track

元期: Sep 14, 2026, 04:37 UTC

1 31800U 07031A   26257.19289823 -.00000070  00000-0  00000-0 0  9995
2 31800   2.6685  78.4875 0005705 231.4992  29.8954  0.99058814 70274

AllMySatでCHINASAT 6Bをリアルタイム追跡

Download on the App Store